Starlink 32786

operational
NORAD ID: 62528 Int'l Des: 2025-004 Owner: SPXS Country: US Constellation: starlink
LEOCIRCULAR

About Starlink 32786

Description loading...

Live Position

Loading 3D Globe...

Upcoming Passes

Altitude History

Altitude vs Time

uPlot chart will show altitude changes over time

Two-Line Element Set

1 62528U 25004T 25355.16199503 .00014459 00000-0 53383-3 0 9996
2 62528 43.0015 302.9394 0001375 279.5727 80.4969 15.27586141 53502
Epoch: Dec 21, 2025 • Age: 6 hours

Current Status

Altitude 493.2 km
Velocity 7.62 km/s
Sub-Earth Point -37.71°S, 7.43°E
Launch Date Jan 8, 2025
Age 0.9 years
Type internet

Technical Details

Classification Payload
Mass 730.00 kg
Dry Mass 700.00 kg
Total Mass 730.00 kg
Length 0.30 m
Diameter 4.10 m
Span 29.00 m
Shape Box + pan
Manufacturer SPXS
Bus Type Starlink V2M
Phase Status In Orbit
Owner/State SPXS/US

Large Constellations

Loading constellations...